Weather in Dudi

Russia / Khabarovsk Krai     52°05′33″N   140°12′06″E
temp.,
°C
wind,
m/s
gust,
m/s
humid.,
%
clouds,
%
prec.,
mm/h
press.,
hPa
HPBL,
m
27 february, sat
sat2701:00−21wnw129078 0.0 102920
04:00−23wnw119668 0.0 102920
07:00−24w129845 0.0 103020
10:00−19ssw128922 0.0 1029169
13:00−15ssw248254 0.0 1028428
16:00−11ssw368173 0.0 1025638
19:00−15ssw3584100 0.0 102588
22:00−16se2289100 0.0 102225
28 february, sun
sun2801:00−14ese2291100 0.0 101860
04:00−13ese2394100 0.3 101363
07:00−12s1196100 0.7 101222
10:00−10w4690100 0.9 1010443
13:00−9wnw358190 0.0 1011575
16:00−8nw358091 0.1 1011781
19:00−14n348795 0.0 101446
22:00−19n338991 0.0 101531
1 march, mon
mon101:00−22nnw239186 0.0 101630
04:00−24wnw229248 0.0 101827
07:00−23wnw349217 0.0 102048
10:00−18wnw49808 0.0 1022683
13:00−15wnw587131 0.0 10221224
16:00−15sw237965 0.1 1023445
19:00−17wsw4691100 0.2 1024129
22:00−20wsw2387100 0.3 102439
2 march, tue
tue201:00−22wsw2396100 0.1 102555
04:00−23wsw2394100 0.2 102658
07:00−24ssw3495100 0.1 1027105
10:00−24sw368296 0.1 1027287
13:00−20sw467034 0.0 1027554
16:00−17wsw586640 0.0 10261672
19:00−22w3378100 0.0 102724
22:00−25sw227050 0.0 102820
3 march, wed
wed301:00−28ssw11900 0.0 102619
04:00−30ssw11940 0.0 102619
07:00−30s11970 0.0 102619
10:00−25ssw11916 0.0 1024156
13:00−20ssw258472 0.0 1021483
16:00−14ssw498186 0.0 1019927
19:00−16sse3596100 0.2 1017121
22:00−17ese1292100 0.3 101520